AirNav   ProFlight Series 2 Aviation Headset
 
 430 users online  

8MO6 Pike County Memorial Hospital Heliport
Louisiana, Missouri, USA

GOING TO LOUISIANA?


FAA INFORMATION EFFECTIVE 16 JULY 2020

Location

FAA Identifier: 8MO6
Lat/Long: 39-26-26.8000N 091-03-50.8100W
39-26.446667N 091-03.846833W
39.4407778,-91.0641139
(estimated)
Elevation: 508 ft. / 155 m (estimated)
Variation: 02E (1985)
From city: 1 mile W of LOUISIANA, MO
Time zone: UTC -5 (UTC -6 during Standard Time)
Zip code: 63353

Heliport Operations

Heliport use: Private use, MEDICAL USE.
Activation date: 05/1991
Control tower: no
ARTCC: KANSAS CITY CENTER
FSS: COLUMBIA FLIGHT SERVICE STATION
Attendance: UNATNDD
Wind indicator: yes
Segmented circle: no
Lights: REQ PERIMETER LGTS 155.340 / 155.115, OR CALL 573-754-5531

Heliport Communications

WX AWOS-3 at PPQ (18 nm NE): 118.525 (217-285-1428)

Nearby radio navigation aids

VOR radial/distance  VOR name  Freq  Var
UINr153/26.4QUINCY VORTAC113.6005E

Heliport Services

Runway Information

Helipad H1

Dimensions: 30 x 30 ft. / 9 x 9 m
Surface: concrete
Runway edge lights: PERI
Latitude: 39-26.446667N
Longitude: 091-03.846833W
Elevation: 508.0 ft.
Traffic pattern: leftleft

Heliport Ownership and Management from official FAA records

Ownership: Privately-owned
Owner: PIKE COUNTY MEMORIAL HOSPITAL
2305 GEORGIA STREET
LOUISIANA, MO 63353
Phone 573-754-5531
Manager: REESA VANHOOSER BSN, RN
2305 GEORGIA STREET
LOUISIANA, MO 63353
Phone 573-754-5531
EXT 161

Additional Remarks

OWNER DESIRES ARPT NOT BE CHARTED.
FOR CD CTC KANSAS CITY ARTCC AT 913-254-8508.

Instrument Procedures

There are no published instrument procedures at 8MO6.

Some nearby airports with instrument procedures:

H19 - Bowling Green Municipal Airport (8 nm SW)
KPPQ - Pittsfield Penstone Municipal Airport (18 nm NE)
KHAE - Hannibal Regional Airport (24 nm NW)
KUIN - Quincy Regional Airport-Baldwin Field (31 nm N)
K52 - Cpt Ben Smith Airfield - Monroe City (33 nm W)
 
Loc | Ops | Rwys | IFR | FBO | Links
Com | Nav | Svcs | Stats | Notes
Area around 8MO6 (Pike County Memorial Hospital Heliport)
 
Road maps at: MapQuest Bing Google
 
Aerial photo
No photo
 
Sectional chart

 
Airport distance calculator
Flying to Pike County Memorial Hospital Heliport? Find the distance to fly.

From to 8MO6

Sunrise and sunset
Times for 08-Aug-2020
 Local
(UTC-5)
 Zulu
(UTC)
Morning civil twilight05:4310:43
Sunrise06:1211:12
Sunset20:0701:07
Evening civil twilight20:3601:36

Current date and time
Zulu (UTC)  08-Aug-2020 10:32:36
Local (UTC-5)  08-Aug-2020 05:32:36
 
METAR
KPPQ 
17nm NE 
081015Z AUTO 15003KT 10SM CLR 19/19 A3011 RMK AO2 T01910191
KHAE 
24nm NW 
081015Z AUTO 15006KT 10SM CLR 22/17 A3008 RMK AO2
KUIN 
31nm N 
080954Z AUTO 17006KT 10SM SCT042 21/17 A3008 RMK AO2 SLP178 T02060172
TAF
KUIN 
31nm N 
080539Z 0806/0906 15008KT P6SM SCT250 FM080900 16008KT P6SM VCSH BKN200 FM081100 18010G18KT P6SM BKN070 FM090000 17006KT P6SM SCT250
NOTAMs
Click for the latest NOTAMs
NOTAMs are issued by the DoD/FAA and will open in a separate window not controlled by AirNav.

 

 
 

Would you like to see your business listed on this page?

 If your business provides an interesting product or service to pilots, flight crews, aircraft, or users of the Pike County Memorial Hospital Heliport, you should consider listing it here.  To start the listing process, click on the button below
 
Add a business
 

Other Pages about Pike County Memorial Hospital Heliport

Update a link
 
Copyright © AirNav, LLC. All rights reserved. Privacy Policy  Contact